Location: Beuvrequen
(50.8014°N, 1.6652°E)
Time: 03:48:45
(UTC+00:00)

H-2A R/B - Pass Details

Date: 16 October 2021
Orbit: 577 x 654 km, 98.5° (Epoch: 28 November)

Event Time Altitude Azimuth Distance (km) Brightness Sun altitude
Rises 19:48:39 0° 7° (N) 2,808 5.6 -27.3°
Reaches altitude 10° 19:50:58 10° 358° (N) 1,903 4.8 -27.6°
Maximum altitude 19:54:37 32° 295° (WNW) 1,007 3.6 -28.2°
Drops below altitude 10° 19:58:17 10° 232° (SW) 1,901 4.9 -28.7°
Sets 20:00:35 0° 222° (SW) 2,804 5.7 -29.1°
